METAR LSZS 151250Z 01008KT 320V060 9999 SCT075 19/07 Q1023 RMK
Diese Daten sind ohne Gewähr und dürfen nicht für die Flugvorbereitung verwendet werden.
Information contained in this website shall not be used for flight operation purposes.